Stations météo

réclame
Mon MeteoGroup
F16-A, Pays-Bas (6206): Température de l'air & dewpoint: 16.10.2018 16:00:00 - 22.10.2018 16:00:00 (CEST)F16-A, Pays-Bas (6206): Vitesse du vent & gusts: 16.10.2018 16:00:00 - 22.10.2018 16:00:00 (CEST)F16-A, Pays-Bas (6206): Direction du vent: 16.10.2018 16:00:00 - 22.10.2018 16:00:00 (CEST)F16-A, Pays-Bas (6206): reduced air pressure: 16.10.2018 16:00:00 - 22.10.2018 16:00:00 (CEST)F16-A, Pays-Bas (6206): visibility: 16.10.2018 16:00:00 - 22.10.2018 16:00:00 (CEST)
Date & Time tt [°C] td [°C] ff [km/h] ff [knt] fx [km/h] fx [knt] dd ppp [hPa] vv [km]
22.10.2018 16:00:00 12,2 5,2 34 18 36 19 WNW 1033,3 10
22.10.2018 15:00:00 11,7 4,3 31 17 36 19 NW 1033,9 10
22.10.2018 14:00:00 11,7 5,5 31 17 36 19 NW 1033,6 10
22.10.2018 13:00:00 11,6 5,0 34 18 36 19 NW 1034,2 10
22.10.2018 12:00:00 11,9 3,3 35 19 40 21 NW 1033,7 10
22.10.2018 11:00:00 11,9 4,2 37 20 40 21 NW 1033,3 10
22.10.2018 10:00:00 11,9 4,0 39 21 40 21 NW 1032,7 10
22.10.2018 09:00:00 11,8 4,0 37 20 36 19 NW 1031,9 10
22.10.2018 08:00:00 12,0 6,1 39 21 43 23 NW 1031,2 10
22.10.2018 07:00:00 12,0 6,9 42 23 47 25 NW 1030,4 10
22.10.2018 06:00:00 12,3 8,5 41 22 40 21 NW 1029,6 10
22.10.2018 05:00:00 12,5 8,4 34 18 36 19 NW 1029,2 10
22.10.2018 04:00:00 12,6 8,8 34 18 36 19 NW 1028,8 10
22.10.2018 03:00:00 12,6 8,6 37 20 40 21 NNW 1028,3 10
22.10.2018 02:00:00 12,7 9,1 41 22 43 23 NW 1027,9 10
22.10.2018 01:00:00 13,1 10,5 37 20 40 21 NW 1027,3 10
22.10.2018 00:00:00 13,4 10,7 39 21 50 27 NNW 1026,8 10
21.10.2018 23:00:00 13,6 11,5 44 24 47 25 NW 1025,8 10
21.10.2018 22:00:00 14,3 11,9 41 22 43 23 WNW 1025,0 10
21.10.2018 21:00:00 14,1 13,2 22 12 25 14 W 1024,6 10
21.10.2018 20:00:00 13,8 13,1 24 13 29 16 W 1024,6 8
21.10.2018 19:00:00 13,9 12,5 28 15 29 16 WSW 1024,1 10
21.10.2018 18:00:00 14,0 11,7 31 17 32 18 WSW 1023,5 10
21.10.2018 17:00:00 14,4 12,1 31 17 32 18 WSW 1023,5 10
21.10.2018 16:00:00 14,5 12,1 31 17 32 18 SW 1023,7 10
21.10.2018 15:00:00 14,4 12,0 34 18 32 18 SW 1024,1 10
21.10.2018 14:00:00 14,3 11,9 29 16 29 16 SW 1024,7 10
21.10.2018 13:00:00 14,5 12,1 28 15 29 16 SW 1024,9 10
21.10.2018 12:00:00 14,6 13,0 28 15 25 14 SW 1025,3 10
21.10.2018 11:00:00 14,7 12,8 28 15 25 14 SSW 1025,6 10
21.10.2018 10:00:00 14,6 12,9 24 13 22 12 SW 1025,8 10
21.10.2018 09:00:00 14,6 12,9 24 13 25 14 SW 1025,7 10
21.10.2018 08:00:00 14,5 12,9 24 13 22 12 SSW 1025,7 10
21.10.2018 07:00:00 14,5 12,5 22 12 22 12 SW 1025,8 10
21.10.2018 06:00:00 14,5 12,6 24 13 25 14 SW 1026,1 10
21.10.2018 05:00:00 14,5 12,4 22 12 22 12 SW 1026,5 10
21.10.2018 04:00:00 14,6 12,0 24 13 22 12 SW 1026,9 10
21.10.2018 03:00:00 14,6 12,2 24 13 22 12 SW 1027,2 10
21.10.2018 02:00:00 14,6 12,2 22 12 22 12 SW 1027,6 10
21.10.2018 01:00:00 14,6 12,2 21 11 22 12 SW 1028,1 10
21.10.2018 00:00:00 14,4 12,2 22 12 22 12 SW 1028,3 10
20.10.2018 23:00:00 14,2 12,0 24 13 25 14 WSW 1028,7 10
20.10.2018 22:00:00 14,1 11,7 22 12 22 12 SW 1028,9 10
20.10.2018 21:00:00 14,0 11,7 22 12 22 12 SW 1029,0 10
20.10.2018 20:00:00 13,8 11,6 18 10 18 10 SW 1029,0 10
20.10.2018 19:00:00 13,7 11,1 21 11 22 12 WSW 1029,0 10
20.10.2018 18:00:00 13,7 10,9 22 12 22 12 SW 1028,7 10
20.10.2018 17:00:00 14,0 10,9 22 12 22 12 WSW 1029,0 10
20.10.2018 16:00:00 14,0 11,2 22 12 22 12 WSW 1029,4 10
20.10.2018 15:00:00 14,3 10,9 22 12 25 14 WSW 1029,3 10
20.10.2018 14:00:00 14,3 10,8 21 11 22 12 WSW 1029,6 10
20.10.2018 13:00:00 14,3 10,7 18 10 18 10 W 1029,9 10
20.10.2018 12:00:00 14,4 10,8 15 8 18 10 W 1030,0 10
20.10.2018 11:00:00 14,1 10,8 15 8 14 8 W 1029,9 10
20.10.2018 10:00:00 13,7 10,8 16 9 14 8 W 1029,4 10
20.10.2018 09:00:00 13,4 10,6 13 7 14 8 WSW 1028,8 10
20.10.2018 08:00:00 13,3 10,7 8 4 14 8 W 1028,0 10
20.10.2018 07:00:00 13,6 10,7 16 9 25 14 WNW 1028,0 10
20.10.2018 06:00:00 13,8 10,8 26 14 25 14 WNW 1027,9 10
20.10.2018 05:00:00 13,8 10,4 18 10 22 12 W 1027,4 10
20.10.2018 04:00:00 13,7 10,2 18 10 22 12 W 1027,4 10
20.10.2018 03:00:00 13,3 9,7 21 11 22 12 WSW 1026,9 10
20.10.2018 02:00:00 13,1 9,3 18 10 22 12 WSW 1026,9 10
20.10.2018 01:00:00 13,1 8,5 18 10 18 10 W 1026,9 10
20.10.2018 00:00:00 12,9 7,5 18 10 22 12 W 1027,1 10
19.10.2018 23:00:00 12,8 7,5 22 12 25 14 W 1026,7 10
19.10.2018 22:00:00 13,1 9,3 26 14 25 14 WSW 1026,6 10
19.10.2018 21:00:00 13,1 9,2 24 13 22 12 W 1026,4 10
19.10.2018 20:00:00 13,4 9,3 18 10 36 19 WSW 1026,0 10
19.10.2018 19:00:00 13,4 8,0 26 14 32 18 SW 1025,6 10
19.10.2018 18:00:00 13,4 7,6 24 13 25 14 SSW 1025,3 10
19.10.2018 17:00:00 13,5 7,1 24 13 32 18 SSW 1025,3 10
19.10.2018 16:00:00 13,2 7,7 31 17 32 18 SSW 1025,3 10
19.10.2018 15:00:00 13,5 5,1 21 11 25 14 S 1025,8 10
19.10.2018 14:00:00 13,4 5,5 22 12 25 14 S 1026,3 10
19.10.2018 13:00:00 13,3 4,5 21 11 22 12 SSE 1026,5 10
19.10.2018 12:00:00 13,3 4,1 15 8 18 10 S 1026,6 10
19.10.2018 11:00:00 13,2 4,2 18 10 22 12 SE 1026,5 10
19.10.2018 10:00:00 13,0 4,1 16 9 18 10 SSE 1026,4 10
19.10.2018 09:00:00 12,7 4,0 13 7 14 8 SE 1026,2 10
19.10.2018 08:00:00 12,4 3,8 4 2 11 6 - 1026,5 10
19.10.2018 07:00:00 12,4 3,9 8 4 18 10 N 1026,7 10
19.10.2018 06:00:00 12,5 4,2 4 2 11 6 - 1026,7 10
19.10.2018 05:00:00 12,4 4,1 8 4 11 6 S 1027,0 10
19.10.2018 04:00:00 12,3 4,7 5 3 11 6 - 1027,2 10
19.10.2018 03:00:00 12,2 6,3 11 6 14 8 ENE 1027,2 10
19.10.2018 02:00:00 12,2 5,7 11 6 14 8 ENE 1027,5 10
19.10.2018 01:00:00 12,2 5,2 13 7 18 10 ENE 1027,8 10
19.10.2018 00:00:00 12,2 5,3 15 8 22 12 ENE 1028,0 10
18.10.2018 23:00:00 12,3 5,7 16 9 18 10 ENE 1028,1 10
18.10.2018 22:00:00 12,3 5,7 21 11 22 12 NE 1028,0 10
18.10.2018 21:00:00 12,4 6,4 22 12 25 14 NE 1027,9 10
18.10.2018 20:00:00 12,4 6,6 24 13 25 14 NE 1027,8 10
18.10.2018 19:00:00 12,5 7,0 24 13 29 16 NE 1027,6 10
18.10.2018 18:00:00 12,6 6,5 26 14 29 16 NE 1027,4 10
18.10.2018 17:00:00 12,7 7,0 29 16 32 18 NE 1027,3 10
18.10.2018 16:00:00 12,9 7,8 25 14 29 16 NE 1027,2 27
18.10.2018 15:00:00 13,0 8,1 28 15 29 16 NE 1027,5 10
18.10.2018 14:00:00 13,1 8,2 28 15 29 16 NE 1027,4 10
18.10.2018 13:00:00 13,2 8,4 24 13 25 14 NE 1027,5 10
18.10.2018 12:00:00 13,4 8,5 24 13 25 14 NE 1027,2 10
18.10.2018 11:00:00 13,2 8,8 24 13 25 14 NNE 1027,0 10
18.10.2018 10:00:00 13,0 8,9 22 12 25 14 NNE 1026,5 10
18.10.2018 09:00:00 12,8 8,4 22 12 25 14 N 1026,1 10
18.10.2018 08:00:00 12,7 8,7 26 14 29 16 NNW 1025,4 10
18.10.2018 07:00:00 12,7 9,2 29 16 32 18 NNW 1025,0 10
18.10.2018 06:00:00 12,7 9,6 29 16 29 16 NNW 1024,7 10
18.10.2018 05:00:00 12,7 9,7 24 13 25 14 NNW 1024,3 10
18.10.2018 04:00:00 12,8 9,6 26 14 29 16 NNW 1024,2 10
18.10.2018 03:00:00 13,0 9,5 29 16 32 18 NNW 1024,1 10
18.10.2018 02:00:00 13,0 10,2 28 15 29 16 NNW 1023,9 10
18.10.2018 01:00:00 13,1 10,7 22 12 25 14 NW 1023,5 10
18.10.2018 00:00:00 13,3 10,8 24 13 25 14 NW 1023,1 10
17.10.2018 23:00:00 13,4 10,5 22 12 22 12 NW 1022,6 10
17.10.2018 22:00:00 13,6 10,9 21 11 22 12 NNW 1022,2 10
17.10.2018 21:00:00 13,7 11,5 18 10 18 10 NW 1021,6 10
17.10.2018 20:00:00 13,8 11,2 16 9 18 10 NNW 1021,1 10
17.10.2018 19:00:00 13,8 11,9 16 9 18 10 NW 1020,2 10
17.10.2018 18:00:00 14,0 12,2 13 7 22 12 NNW 1019,7 10
17.10.2018 17:00:00 14,1 12,3 18 10 22 12 NW 1019,2 10
17.10.2018 16:00:00 14,3 12,3 13 7 25 14 W 1018,9 10
17.10.2018 15:00:00 14,3 12,3 16 9 18 10 W 1018,6 10
17.10.2018 14:00:00 14,3 11,4 16 9 18 10 WSW 1018,4 10
17.10.2018 13:00:00 14,3 10,8 16 9 22 12 SW 1018,2 10
17.10.2018 12:00:00 14,3 11,4 21 11 22 12 WSW 1018,0 10
17.10.2018 11:00:00 14,5 12,3 22 12 22 12 SW 1017,7 10
17.10.2018 10:00:00 14,7 12,2 24 13 22 12 SW 1017,2 10
17.10.2018 09:00:00 14,8 12,9 24 13 22 12 SW 1016,7 10
17.10.2018 08:00:00 15,1 13,6 26 14 25 14 SW 1016,2 10
17.10.2018 07:00:00 15,2 13,9 21 11 22 12 SW 1015,9 10
17.10.2018 06:00:00 15,3 14,0 21 11 22 12 SW 1015,7 10
17.10.2018 05:00:00 15,5 14,1 29 16 29 16 SW 1015,5 10
17.10.2018 04:00:00 15,9 14,5 31 17 32 18 SSW 1015,5 10
17.10.2018 03:00:00 16,3 14,4 37 20 36 19 SSW 1015,5 10
17.10.2018 02:00:00 16,4 14,3 34 18 36 19 SSW 1015,5 10
17.10.2018 01:00:00 16,5 14,2 35 19 32 18 - 1015,7 10
17.10.2018 00:00:00 16,4 14,3 41 22 40 21 SSW 1016,0 10
16.10.2018 23:00:00 16,3 14,2 29 16 32 18 SSW 1016,3 10
16.10.2018 22:00:00 16,2 14,4 29 16 36 19 SSW 1016,3 10
16.10.2018 21:00:00 16,0 14,6 24 13 29 16 SSW 1016,2 10
16.10.2018 20:00:00 15,8 15,2 24 13 22 12 SSW 1016,3 9
16.10.2018 19:00:00 14,6 14,5 18 10 22 12 SSW 1015,9 2,4
16.10.2018 18:00:00 15,5 14,9 24 13 32 18 SW 1016,1 6
16.10.2018 17:00:00 15,5 14,7 26 14 29 16 SSW 1015,8 6
16.10.2018 16:00:00 15,7 14,7 29 16 36 19 - 1016,1 8

tt = Température de l'air
td = dewpoint
ff = Vitesse du vent
fx = gusts
dd = Direction du vent
ppp = reduced air pressure
vv = visibility

stations d'obs. à proximité